Time,TemperatureF,DewpointF,PressureIn,WindDirection,WindDirectionDegrees,WindSpeedMPH,WindSpeedGustMPH,Humidity,HourlyPrecipIn,Conditions,Clouds,dailyrainin,SolarRadiationWatts/m^2,SoftwareType,DateUTC
2013-02-03 00:09:00,46.4,45.0,30.26,SSW,205,1.0,1.0,95,0.00,,,0.00,0,Wunderground v.1.15,2013-02-03 08:09:00,
2013-02-03 00:14:00,46.4,45.3,30.26,South,188,3.0,3.0,96,0.00,,,0.00,0,Wunderground v.1.15,2013-02-03 08:14:00,
2013-02-03 00:19:00,46.4,45.6,30.26,SSW,201,2.0,2.0,97,0.00,,,0.00,0,Wunderground v.1.15,2013-02-03 08:19:00,
2013-02-03 00:29:00,46.4,45.6,30.26,SSW,196,5.0,5.0,97,0.00,,,0.00,0,Wunderground v.1.15,2013-02-03 08:29:00,
2013-02-03 00:34:00,46.5,46.0,30.26,SSW,203,3.0,5.0,98,0.00,,,0.00,0,Wunderground v.1.15,2013-02-03 08:34:00,
2013-02-03 00:39:00,46.5,46.0,30.26,SSW,200,4.0,4.0,98,0.00,,,0.00,0,Wunderground v.1.15,2013-02-03 08:39:00,
2013-02-03 00:49:00,46.6,46.1,30.26,South,191,2.0,2.0,98,0.00,,,0.00,0,Wunderground v.1.15,2013-02-03 08:49:00,
2013-02-03 00:59:00,46.6,46.1,30.26,South,191,0.0,0.0,98,0.00,,,0.00,0,Wunderground v.1.15,2013-02-03 08:59:00,
2013-02-03 01:09:00,46.5,46.2,30.25,SSW,194,1.0,1.0,99,0.00,,,0.00,0,Wunderground v.1.15,2013-02-03 09:09:00,
2013-02-03 01:18:00,46.4,45.9,30.25,SSW,208,0.0,0.0,98,0.00,,,0.00,0,Wunderground v.1.15,2013-02-03 09:18:00,
2013-02-03 01:24:00,46.3,46.0,30.25,SSW,200,1.0,1.0,99,0.00,,,0.00,0,Wunderground v.1.15,2013-02-03 09:24:00,
2013-02-03 01:29:00,46.3,46.0,30.25,SSW,207,0.0,0.0,99,0.00,,,0.00,0,Wunderground v.1.15,2013-02-03 09:29:00,
2013-02-03 01:39:00,46.2,45.7,30.25,SSW,196,1.0,1.0,98,0.00,,,0.00,0,Wunderground v.1.15,2013-02-03 09:39:00,
2013-02-03 01:44:00,46.2,45.4,30.25,SSW,196,0.0,1.0,97,0.00,,,0.00,0,Wunderground v.1.15,2013-02-03 09:44:00,
2013-02-03 01:54:00,46.0,45.2,30.25,SW,236,0.0,0.0,97,0.00,,,0.00,0,Wunderground v.1.15,2013-02-03 09:54:00,
2013-02-03 01:59:00,45.9,44.8,30.25,SSW,203,0.0,0.0,96,0.00,,,0.00,0,Wunderground v.1.15,2013-02-03 09:59:00,
2013-02-03 02:08:00,45.9,44.5,30.25,SSW,202,0.0,0.0,95,0.00,,,0.00,0,Wunderground v.1.15,2013-02-03 10:08:00,
2013-02-03 02:14:00,45.8,44.2,30.25,SSW,202,0.0,0.0,94,0.00,,,0.00,0,Wunderground v.1.15,2013-02-03 10:14:00,
2013-02-03 02:19:00,45.8,44.4,30.25,SSW,202,0.0,0.0,95,0.00,,,0.00,0,Wunderground v.1.15,2013-02-03 10:19:00,
2013-02-03 02:29:00,45.7,44.4,30.25,WNW,298,3.0,3.0,95,0.00,,,0.00,0,Wunderground v.1.15,2013-02-03 10:29:00,
2013-02-03 02:34:00,45.7,44.4,30.25,NW,305,1.0,3.0,95,0.00,,,0.00,0,Wunderground v.1.15,2013-02-03 10:34:00,
2013-02-03 02:39:00,45.8,44.4,30.25,NW,305,0.0,0.0,95,0.00,,,0.00,0,Wunderground v.1.15,2013-02-03 10:39:00,
2013-02-03 02:48:00,45.6,44.3,30.26,NW,305,0.0,0.0,95,0.00,,,0.00,0,Wunderground v.1.15,2013-02-03 10:48:00,
2013-02-03 02:54:00,45.5,44.2,30.25,WNW,301,0.0,0.0,95,0.00,,,0.00,0,Wunderground v.1.15,2013-02-03 10:54:00,
2013-02-03 02:59:00,45.4,44.3,30.25,SSW,199,0.0,0.0,96,0.00,,,0.00,0,Wunderground v.1.15,2013-02-03 10:59:00,
2013-02-03 03:09:00,45.1,44.3,30.25,SSW,200,0.0,0.0,97,0.00,,,0.00,0,Wunderground v.1.15,2013-02-03 11:09:00,
2013-02-03 03:14:00,44.8,44.8,30.25,SSE,167,0.0,0.0,100,0.00,,,0.00,0,Wunderground v.1.15,2013-02-03 11:14:00,
2013-02-03 03:19:00,44.7,44.7,30.25,SSE,167,0.0,0.0,100,0.00,,,0.00,0,Wunderground v.1.15,2013-02-03 11:19:00,
2013-02-03 03:29:00,44.5,43.7,30.25,SSW,213,0.0,0.0,97,0.00,,,0.00,0,Wunderground v.1.15,2013-02-03 11:29:00,
2013-02-03 03:39:00,44.2,43.9,30.24,SSW,213,0.0,0.0,99,0.00,,,0.00,0,Wunderground v.1.15,2013-02-03 11:39:00,
2013-02-03 03:49:00,43.9,43.6,30.24,SSW,213,0.0,0.0,99,0.00,,,0.00,0,Wunderground v.1.15,2013-02-03 11:49:00,
2013-02-03 03:54:00,43.8,43.5,30.24,SSW,213,0.0,0.0,99,0.00,,,0.00,0,Wunderground v.1.15,2013-02-03 11:54:00,
2013-02-03 03:59:00,43.8,43.3,30.24,SSW,213,0.0,0.0,98,0.00,,,0.00,0,Wunderground v.1.15,2013-02-03 11:59:00,
2013-02-03 04:09:00,43.7,43.7,30.24,SW,215,0.0,0.0,100,0.00,,,0.00,0,Wunderground v.1.15,2013-02-03 12:09:00,
2013-02-03 04:18:00,43.7,43.7,30.23,SW,217,0.0,0.0,100,0.00,,,0.00,0,Wunderground v.1.15,2013-02-03 12:18:00,
2013-02-03 04:24:00,43.6,43.6,30.24,SW,224,0.0,0.0,100,0.00,,,0.00,0,Wunderground v.1.15,2013-02-03 12:24:00,
2013-02-03 04:34:00,43.5,43.5,30.23,SW,224,0.0,0.0,100,0.00,,,0.00,0,Wunderground v.1.15,2013-02-03 12:34:00,
2013-02-03 04:39:00,43.5,43.5,30.23,SW,224,0.0,0.0,100,0.00,,,0.00,0,Wunderground v.1.15,2013-02-03 12:39:00,
2013-02-03 04:49:00,43.5,43.5,30.23,SW,224,0.0,0.0,100,0.00,,,0.00,0,Wunderground v.1.15,2013-02-03 12:49:00,
2013-02-03 04:54:00,43.5,43.5,30.23,SW,224,0.0,0.0,100,0.00,,,0.00,0,Wunderground v.1.15,2013-02-03 12:54:00,
2013-02-03 04:59:00,43.5,43.5,30.23,SW,224,0.0,0.0,100,0.00,,,0.00,0,Wunderground v.1.15,2013-02-03 12:59:00,
2013-02-03 05:09:00,43.7,43.7,30.23,SW,224,0.0,0.0,100,0.00,,,0.00,0,Wunderground v.1.15,2013-02-03 13:09:00,
2013-02-03 05:14:00,43.7,43.7,30.22,SW,224,0.0,0.0,100,0.00,,,0.00,0,Wunderground v.1.15,2013-02-03 13:14:00,
2013-02-03 05:23:00,43.8,43.8,30.22,SW,229,0.0,0.0,100,0.00,,,0.00,0,Wunderground v.1.15,2013-02-03 13:23:00,
2013-02-03 05:28:00,43.8,43.8,30.23,SW,229,0.0,0.0,100,0.00,,,0.00,0,Wunderground v.1.15,2013-02-03 13:28:00,
2013-02-03 05:34:00,43.8,43.8,30.23,SW,224,0.0,0.0,100,0.00,,,0.00,0,Wunderground v.1.15,2013-02-03 13:34:00,
2013-02-03 05:39:00,43.7,43.7,30.23,SSW,200,0.0,0.0,100,0.00,,,0.00,0,Wunderground v.1.15,2013-02-03 13:39:00,
2013-02-03 05:49:00,43.7,43.7,30.23,SSW,201,0.0,0.0,100,0.00,,,0.00,0,Wunderground v.1.15,2013-02-03 13:49:00,
2013-02-03 05:54:00,43.8,43.8,30.23,SSW,201,0.0,0.0,100,0.00,,,0.00,0,Wunderground v.1.15,2013-02-03 13:54:00,
2013-02-03 05:59:00,44.0,44.0,30.23,WNW,293,0.0,0.0,100,0.00,,,0.00,0,Wunderground v.1.15,2013-02-03 13:59:00,
2013-02-03 06:09:00,44.2,44.2,30.23,WNW,293,0.0,0.0,100,0.00,,,0.00,0,Wunderground v.1.15,2013-02-03 14:09:00,
2013-02-03 06:19:00,44.5,44.5,30.23,WNW,293,0.0,0.0,100,0.00,,,0.00,0,Wunderground v.1.15,2013-02-03 14:19:00,
2013-02-03 06:29:00,44.7,44.7,30.24,West,269,0.0,0.0,100,0.00,,,0.00,0,Wunderground v.1.15,2013-02-03 14:29:00,
2013-02-03 06:38:00,44.8,44.8,30.25,West,265,0.0,0.0,100,0.00,,,0.00,0,Wunderground v.1.15,2013-02-03 14:38:00,
2013-02-03 06:44:00,44.9,44.9,30.24,West,265,0.0,0.0,100,0.00,,,0.00,0,Wunderground v.1.15,2013-02-03 14:44:00,
2013-02-03 06:49:00,45.1,45.1,30.25,SW,218,0.0,0.0,100,0.00,,,0.00,0,Wunderground v.1.15,2013-02-03 14:49:00,
2013-02-03 06:59:00,45.2,45.2,30.25,SSW,198,0.0,0.0,100,0.00,,,0.00,0,Wunderground v.1.15,2013-02-03 14:59:00,
2013-02-03 07:04:00,45.3,45.3,30.25,SSW,202,0.0,0.0,100,0.00,,,0.00,0,Wunderground v.1.15,2013-02-03 15:04:00,
2013-02-03 07:14:00,45.4,45.4,30.25,SW,215,0.0,0.0,100,0.00,,,0.00,0,Wunderground v.1.15,2013-02-03 15:14:00,
2013-02-03 07:19:00,45.5,45.5,30.25,SW,215,0.0,0.0,100,0.00,,,0.00,0,Wunderground v.1.15,2013-02-03 15:19:00,
2013-02-03 07:24:00,45.4,45.4,30.25,SW,215,0.0,0.0,100,0.00,,,0.00,0,Wunderground v.1.15,2013-02-03 15:24:00,
2013-02-03 07:29:00,45.4,45.4,30.24,SW,215,0.0,0.0,100,0.00,,,0.00,0,Wunderground v.1.15,2013-02-03 15:29:00,
2013-02-03 07:39:00,45.5,45.5,30.24,SW,215,0.0,0.0,100,0.00,,,0.00,0,Wunderground v.1.15,2013-02-03 15:39:00,
2013-02-03 07:48:00,45.5,45.5,30.24,SW,215,0.0,0.0,100,0.00,,,0.00,0,Wunderground v.1.15,2013-02-03 15:48:00,
2013-02-03 07:54:00,45.6,45.6,30.24,SW,214,0.0,0.0,100,0.00,,,0.00,0,Wunderground v.1.15,2013-02-03 15:54:00,
2013-02-03 08:03:00,45.7,45.7,30.24,SW,214,0.0,0.0,100,0.00,,,0.00,0,Wunderground v.1.15,2013-02-03 16:03:00,
2013-02-03 08:08:00,45.7,45.7,30.24,SW,219,0.0,0.0,100,0.00,,,0.00,0,Wunderground v.1.15,2013-02-03 16:08:00,
2013-02-03 08:14:00,45.8,45.8,30.24,SW,219,0.0,0.0,100,0.00,,,0.00,0,Wunderground v.1.15,2013-02-03 16:14:00,
2013-02-03 08:19:00,46.0,46.0,30.25,SW,219,0.0,0.0,100,0.00,,,0.00,0,Wunderground v.1.15,2013-02-03 16:19:00,
2013-02-03 08:29:00,46.3,46.3,30.25,SW,218,0.0,0.0,100,0.00,,,0.00,0,Wunderground v.1.15,2013-02-03 16:29:00,
2013-02-03 08:34:00,46.3,46.3,30.25,SW,230,0.0,0.0,100,0.00,,,0.00,0,Wunderground v.1.15,2013-02-03 16:34:00,
2013-02-03 08:39:00,46.4,46.4,30.25,SSW,212,0.0,0.0,100,0.00,,,0.00,0,Wunderground v.1.15,2013-02-03 16:39:00,
2013-02-03 08:49:00,46.5,46.5,30.25,SSW,198,0.0,0.0,100,0.00,,,0.00,0,Wunderground v.1.15,2013-02-03 16:49:00,
2013-02-03 08:54:00,46.6,46.6,30.25,WNW,282,0.0,0.0,100,0.00,,,0.00,0,Wunderground v.1.15,2013-02-03 16:54:00,
2013-02-03 08:59:00,46.8,46.8,30.25,WNW,283,0.0,0.0,100,0.00,,,0.00,0,Wunderground v.1.15,2013-02-03 16:59:00,
2013-02-03 09:09:00,47.0,46.5,30.26,West,272,0.0,0.0,98,0.00,,,0.00,0,Wunderground v.1.15,2013-02-03 17:09:00,
2013-02-03 09:14:00,47.2,46.7,30.26,SW,235,0.0,0.0,98,0.00,,,0.00,0,Wunderground v.1.15,2013-02-03 17:14:00,
2013-02-03 09:19:00,47.2,46.4,30.25,SSW,200,2.0,2.0,97,0.00,,,0.00,0,Wunderground v.1.15,2013-02-03 17:19:00,
2013-02-03 09:29:00,47.5,46.4,30.26,SSW,193,0.0,0.0,96,0.00,,,0.00,0,Wunderground v.1.15,2013-02-03 17:29:00,
2013-02-03 09:38:00,47.8,46.7,30.26,South,180,0.0,0.0,96,0.00,,,0.00,0,Wunderground v.1.15,2013-02-03 17:38:00,
2013-02-03 09:44:00,47.9,46.5,30.26,SSW,193,3.0,3.0,95,0.00,,,0.00,0,Wunderground v.1.15,2013-02-03 17:44:00,
2013-02-03 09:53:00,47.9,46.0,30.26,SSW,192,0.0,0.0,93,0.00,,,0.00,0,Wunderground v.1.15,2013-02-03 17:53:00,
2013-02-03 09:58:00,48.2,46.6,30.26,South,180,0.0,0.0,94,0.00,,,0.00,0,Wunderground v.1.15,2013-02-03 17:58:00,
2013-02-03 10:04:00,48.3,46.4,30.26,SSW,203,0.0,0.0,93,0.00,,,0.00,0,Wunderground v.1.15,2013-02-03 18:04:00,
2013-02-03 10:09:00,48.4,46.2,30.26,SSW,205,3.0,3.0,92,0.00,,,0.00,0,Wunderground v.1.15,2013-02-03 18:09:00,
2013-02-03 10:19:00,48.5,46.0,30.26,South,182,1.0,1.0,91,0.00,,,0.00,0,Wunderground v.1.15,2013-02-03 18:19:00,
2013-02-03 10:28:00,48.9,46.4,30.26,WNW,282,1.0,1.0,91,0.00,,,0.00,0,Wunderground v.1.15,2013-02-03 18:28:00,
2013-02-03 10:34:00,49.0,46.2,30.27,NW,304,0.0,1.0,90,0.00,,,0.00,0,Wunderground v.1.15,2013-02-03 18:34:00,
2013-02-03 10:43:00,49.3,46.5,30.27,SW,228,0.0,0.0,90,0.00,,,0.00,0,Wunderground v.1.15,2013-02-03 18:43:00,
2013-02-03 10:48:00,49.5,46.4,30.27,SSW,201,2.0,2.0,89,0.00,,,0.00,0,Wunderground v.1.15,2013-02-03 18:48:00,
2013-02-03 10:54:00,49.4,46.3,30.27,WNW,284,0.0,2.0,89,0.00,,,0.00,0,Wunderground v.1.15,2013-02-03 18:54:00,
2013-02-03 10:59:00,49.7,46.6,30.27,SW,228,1.0,1.0,89,0.00,,,0.00,0,Wunderground v.1.15,2013-02-03 18:59:00,
2013-02-03 11:09:00,50.1,46.7,30.27,SSW,195,1.0,1.0,88,0.00,,,0.00,0,Wunderground v.1.15,2013-02-03 19:09:00,
2013-02-03 11:14:00,50.0,46.0,30.26,South,177,1.0,1.0,86,0.00,,,0.00,0,Wunderground v.1.15,2013-02-03 19:14:00,
2013-02-03 11:19:00,49.5,45.8,30.26,South,182,5.0,5.0,87,0.00,,,0.00,0,Wunderground v.1.15,2013-02-03 19:19:00,
2013-02-03 11:29:00,49.3,45.9,30.25,SSW,199,1.0,1.0,88,0.00,,,0.00,0,Wunderground v.1.15,2013-02-03 19:29:00,
2013-02-03 11:38:00,50.2,46.8,30.24,SSW,193,1.0,1.0,88,0.00,,,0.00,0,Wunderground v.1.15,2013-02-03 19:38:00,
2013-02-03 11:44:00,50.8,47.1,30.24,SSW,201,4.0,4.0,87,0.00,,,0.00,0,Wunderground v.1.15,2013-02-03 19:44:00,
2013-02-03 11:49:00,51.2,47.5,30.23,South,187,0.0,0.0,87,0.00,,,0.00,0,Wunderground v.1.15,2013-02-03 19:49:00,
2013-02-03 11:59:00,51.2,46.8,30.23,SW,233,1.0,1.0,85,0.00,,,0.00,0,Wunderground v.1.15,2013-02-03 19:59:00,
2013-02-03 12:04:00,51.8,47.4,30.22,SSW,203,2.0,2.0,85,0.00,,,0.00,0,Wunderground v.1.15,2013-02-03 20:04:00,
2013-02-03 12:09:00,52.3,47.6,30.22,SSW,198,2.0,2.0,84,0.00,,,0.00,0,Wunderground v.1.15,2013-02-03 20:09:00,
2013-02-03 12:19:00,53.3,48.6,30.21,WSW,255,0.0,0.0,84,0.00,,,0.00,0,Wunderground v.1.15,2013-02-03 20:19:00,
2013-02-03 12:29:00,54.4,48.4,30.20,South,171,0.0,0.0,80,0.00,,,0.00,0,Wunderground v.1.15,2013-02-03 20:29:00,
2013-02-03 12:39:00,54.6,48.2,30.20,SSW,198,0.0,0.0,79,0.00,,,0.00,0,Wunderground v.1.15,2013-02-03 20:39:00,
2013-02-03 12:48:00,54.9,48.5,30.20,NW,313,1.0,1.0,79,0.00,,,0.00,0,Wunderground v.1.15,2013-02-03 20:48:00,
2013-02-03 12:54:00,54.8,48.1,30.19,South,171,3.0,3.0,78,0.00,,,0.00,0,Wunderground v.1.15,2013-02-03 20:54:00,
2013-02-03 12:59:00,54.8,48.4,30.19,NW,304,2.0,2.0,79,0.00,,,0.00,0,Wunderground v.1.15,2013-02-03 20:59:00,
2013-02-03 13:09:00,54.7,48.3,30.19,SSE,166,1.0,1.0,79,0.00,,,0.00,0,Wunderground v.1.15,2013-02-03 21:09:00,
2013-02-03 13:19:00,55.4,48.7,30.18,NW,323,3.0,3.0,78,0.00,,,0.00,0,Wunderground v.1.15,2013-02-03 21:19:00,
2013-02-03 13:24:00,55.8,49.0,30.18,South,187,2.0,3.0,78,0.00,,,0.00,0,Wunderground v.1.15,2013-02-03 21:24:00,
2013-02-03 13:29:00,55.9,48.8,30.18,South,176,1.0,1.0,77,0.00,,,0.00,0,Wunderground v.1.15,2013-02-03 21:29:00,
2013-02-03 13:39:00,56.0,48.5,30.18,NW,317,4.0,4.0,76,0.00,,,0.00,0,Wunderground v.1.15,2013-02-03 21:39:00,
2013-02-03 13:48:00,55.3,48.2,30.18,NW,313,4.0,4.0,77,0.00,,,0.00,0,Wunderground v.1.15,2013-02-03 21:48:00,
2013-02-03 13:54:00,55.7,48.6,30.18,NNW,347,4.0,4.0,77,0.00,,,0.00,0,Wunderground v.1.15,2013-02-03 21:54:00,
2013-02-03 13:59:00,55.7,48.2,30.18,NW,306,3.0,3.0,76,0.00,,,0.00,0,Wunderground v.1.15,2013-02-03 21:59:00,
2013-02-03 14:08:00,56.4,48.9,30.18,North,351,0.0,0.0,76,0.00,,,0.00,0,Wunderground v.1.15,2013-02-03 22:08:00,
2013-02-03 14:14:00,56.5,48.7,30.17,NW,317,2.0,2.0,75,0.00,,,0.00,0,Wunderground v.1.15,2013-02-03 22:14:00,
2013-02-03 14:23:00,57.4,49.2,30.17,NW,313,0.0,2.0,74,0.00,,,0.00,0,Wunderground v.1.15,2013-02-03 22:23:00,
2013-02-03 14:28:00,58.1,49.9,30.17,West,263,0.0,0.0,74,0.00,,,0.00,0,Wunderground v.1.15,2013-02-03 22:28:00,
2013-02-03 14:34:00,58.5,49.9,30.17,SSW,208,0.0,0.0,73,0.00,,,0.00,0,Wunderground v.1.15,2013-02-03 22:34:00,
2013-02-03 14:39:00,59.0,50.0,30.17,SSW,201,0.0,0.0,72,0.00,,,0.00,0,Wunderground v.1.15,2013-02-03 22:39:00,
2013-02-03 14:49:00,58.7,49.7,30.17,SSW,213,1.0,1.0,72,0.00,,,0.00,0,Wunderground v.1.15,2013-02-03 22:49:00,
2013-02-03 14:58:00,59.1,49.7,30.16,NE,41,0.0,0.0,71,0.00,,,0.00,0,Wunderground v.1.15,2013-02-03 22:58:00,
2013-02-03 15:04:00,59.6,50.2,30.16,East,97,2.0,2.0,71,0.00,,,0.00,0,Wunderground v.1.15,2013-02-03 23:04:00,
2013-02-03 15:14:00,60.2,50.4,30.16,ESE,102,1.0,1.0,70,0.00,,,0.00,0,Wunderground v.1.15,2013-02-03 23:14:00,
2013-02-03 15:19:00,60.0,50.2,30.16,NE,37,0.0,0.0,70,0.00,,,0.00,0,Wunderground v.1.15,2013-02-03 23:19:00,
2013-02-03 15:28:00,60.4,50.6,30.15,ENE,78,3.0,3.0,70,0.00,,,0.00,0,Wunderground v.1.15,2013-02-03 23:28:00,
2013-02-03 15:34:00,60.8,51.0,30.16,SE,146,1.0,3.0,70,0.00,,,0.00,0,Wunderground v.1.15,2013-02-03 23:34:00,
2013-02-03 15:39:00,60.8,51.0,30.16,South,181,0.0,0.0,70,0.00,,,0.00,0,Wunderground v.1.15,2013-02-03 23:39:00,
2013-02-03 15:49:00,60.9,51.0,30.16,South,183,1.0,1.0,70,0.00,,,0.00,0,Wunderground v.1.15,2013-02-03 23:49:00,
2013-02-03 15:54:00,60.5,50.7,30.16,South,183,0.0,1.0,70,0.00,,,0.00,0,Wunderground v.1.15,2013-02-03 23:54:00,
2013-02-03 15:59:00,60.3,50.5,30.14,SSW,204,3.0,3.0,70,0.00,,,0.00,0,Wunderground v.1.15,2013-02-03 23:59:00,
2013-02-03 16:09:00,59.5,50.1,30.14,South,178,0.0,0.0,71,0.00,,,0.00,0,Wunderground v.1.15,2013-02-04 00:09:00,
2013-02-03 16:14:00,59.3,49.9,30.14,South,176,0.0,0.0,71,0.00,,,0.00,0,Wunderground v.1.15,2013-02-04 00:14:00,
2013-02-03 16:19:00,58.9,49.5,30.15,ENE,65,0.0,0.0,71,0.00,,,0.00,0,Wunderground v.1.15,2013-02-04 00:19:00,
2013-02-03 16:29:00,58.4,48.7,30.15,ENE,65,0.0,0.0,70,0.00,,,0.00,0,Wunderground v.1.15,2013-02-04 00:29:00,
2013-02-03 16:39:00,58.4,49.0,30.14,SSW,192,0.0,0.0,71,0.00,,,0.00,0,Wunderground v.1.15,2013-02-04 00:39:00,
2013-02-03 16:44:00,58.3,48.9,30.14,South,190,0.0,0.0,71,0.00,,,0.00,0,Wunderground v.1.15,2013-02-04 00:44:00,
2013-02-03 16:49:00,58.2,48.8,30.15,South,190,0.0,0.0,71,0.00,,,0.00,0,Wunderground v.1.15,2013-02-04 00:49:00,
2013-02-03 16:59:00,58.1,49.1,30.14,South,189,0.0,0.0,72,0.00,,,0.00,0,Wunderground v.1.15,2013-02-04 00:59:00,
2013-02-03 17:04:00,57.9,48.6,30.14,South,189,0.0,0.0,71,0.00,,,0.00,0,Wunderground v.1.15,2013-02-04 01:04:00,
2013-02-03 17:09:00,57.7,48.7,30.14,SSW,193,2.0,2.0,72,0.00,,,0.00,0,Wunderground v.1.15,2013-02-04 01:09:00,
2013-02-03 17:19:00,57.3,48.3,30.14,South,182,1.0,1.0,72,0.00,,,0.00,0,Wunderground v.1.15,2013-02-04 01:19:00,
2013-02-03 17:28:00,56.7,47.8,30.14,South,182,1.0,1.0,72,0.00,,,0.00,0,Wunderground v.1.15,2013-02-04 01:28:00,
2013-02-03 17:34:00,56.4,47.9,30.14,South,182,0.0,1.0,73,0.00,,,0.00,0,Wunderground v.1.15,2013-02-04 01:34:00,
2013-02-03 17:39:00,56.0,47.5,30.15,South,182,0.0,0.0,73,0.00,,,0.00,0,Wunderground v.1.15,2013-02-04 01:39:00,
2013-02-03 17:49:00,55.1,47.0,30.15,South,182,0.0,0.0,74,0.00,,,0.00,0,Wunderground v.1.15,2013-02-04 01:49:00,
2013-02-03 17:54:00,54.6,46.8,30.15,South,182,0.0,0.0,75,0.00,,,0.00,0,Wunderground v.1.15,2013-02-04 01:54:00,
2013-02-03 18:04:00,53.4,46.0,30.16,South,186,0.0,3.0,76,0.00,,,0.00,0,Wunderground v.1.15,2013-02-04 02:04:00,
2013-02-03 18:09:00,53.0,46.0,30.16,SSW,201,1.0,1.0,77,0.00,,,0.00,0,Wunderground v.1.15,2013-02-04 02:09:00,
2013-02-03 18:14:00,52.5,45.8,30.16,SSW,195,1.0,1.0,78,0.00,,,0.00,0,Wunderground v.1.15,2013-02-04 02:14:00,
2013-02-03 18:24:00,51.6,45.3,30.16,South,178,0.0,3.0,79,0.00,,,0.00,0,Wunderground v.1.15,2013-02-04 02:24:00,
2013-02-03 18:29:00,51.3,45.3,30.16,South,179,2.0,2.0,80,0.00,,,0.00,0,Wunderground v.1.15,2013-02-04 02:29:00,
2013-02-03 18:39:00,50.8,45.2,30.16,SSW,195,2.0,2.0,81,0.00,,,0.00,0,Wunderground v.1.15,2013-02-04 02:39:00,
2013-02-03 18:44:00,50.6,45.3,30.16,SSW,202,3.0,3.0,82,0.00,,,0.00,0,Wunderground v.1.15,2013-02-04 02:44:00,
2013-02-03 18:54:00,50.2,45.6,30.16,South,186,0.0,1.0,84,0.00,,,0.00,0,Wunderground v.1.15,2013-02-04 02:54:00,
2013-02-03 18:59:00,50.1,45.8,30.16,South,186,0.0,0.0,85,0.00,,,0.00,0,Wunderground v.1.15,2013-02-04 02:59:00,
2013-02-03 19:09:00,49.7,45.4,30.16,South,186,0.0,0.0,85,0.00,,,0.00,0,Wunderground v.1.15,2013-02-04 03:09:00,
2013-02-03 19:14:00,49.5,45.2,30.16,South,186,0.0,0.0,85,0.00,,,0.00,0,Wunderground v.1.15,2013-02-04 03:14:00,
2013-02-03 19:19:00,49.2,44.6,30.17,South,186,0.0,0.0,84,0.00,,,0.00,0,Wunderground v.1.15,2013-02-04 03:19:00,
2013-02-03 19:29:00,49.0,44.4,30.17,South,186,1.0,1.0,84,0.00,,,0.00,0,Wunderground v.1.15,2013-02-04 03:29:00,
2013-02-03 19:34:00,48.8,44.5,30.17,South,186,1.0,1.0,85,0.00,,,0.00,0,Wunderground v.1.15,2013-02-04 03:34:00,
2013-02-03 19:39:00,48.7,44.4,30.17,South,186,0.0,0.0,85,0.00,,,0.00,0,Wunderground v.1.15,2013-02-04 03:39:00,
2013-02-03 19:49:00,48.1,43.8,30.17,South,186,2.0,2.0,85,0.00,,,0.00,0,Wunderground v.1.15,2013-02-04 03:49:00,
2013-02-03 19:58:00,47.7,44.9,30.18,South,186,2.0,2.0,90,0.00,,,0.00,0,Wunderground v.1.15,2013-02-04 03:58:00,
2013-02-03 20:04:00,47.6,44.5,30.18,South,186,1.0,2.0,89,0.00,,,0.00,0,Wunderground v.1.15,2013-02-04 04:04:00,
2013-02-03 20:09:00,47.5,44.4,30.18,South,186,2.0,2.0,89,0.00,,,0.00,0,Wunderground v.1.15,2013-02-04 04:09:00,
2013-02-03 20:19:00,47.5,44.4,30.18,South,189,2.0,2.0,89,0.00,,,0.00,0,Wunderground v.1.15,2013-02-04 04:19:00,
2013-02-03 20:24:00,47.4,44.6,30.18,South,187,2.0,2.0,90,0.00,,,0.00,0,Wunderground v.1.15,2013-02-04 04:24:00,
2013-02-03 20:29:00,47.2,44.1,30.18,South,181,3.0,3.0,89,0.00,,,0.00,0,Wunderground v.1.15,2013-02-04 04:29:00,
2013-02-03 20:38:00,46.9,44.1,30.18,SSW,193,2.0,2.0,90,0.00,,,0.00,0,Wunderground v.1.15,2013-02-04 04:38:00,
2013-02-03 20:43:00,46.9,45.0,30.18,SSW,198,2.0,2.0,93,0.00,,,0.00,0,Wunderground v.1.15,2013-02-04 04:43:00,
2013-02-03 20:48:00,47.0,45.6,30.17,South,188,3.0,3.0,95,0.00,,,0.00,0,Wunderground v.1.15,2013-02-04 04:48:00,
2013-02-03 20:53:00,47.1,45.7,30.18,South,189,3.0,3.0,95,0.00,,,0.00,0,Wunderground v.1.15,2013-02-04 04:53:00,
2013-02-03 20:58:00,47.0,45.9,30.17,South,172,2.0,2.0,96,0.00,,,0.00,0,Wunderground v.1.15,2013-02-04 04:58:00,
2013-02-03 21:03:00,46.8,45.7,30.18,South,181,2.0,2.0,96,0.00,,,0.00,0,Wunderground v.1.15,2013-02-04 05:03:00,
2013-02-03 21:09:00,46.5,45.1,30.18,South,181,1.0,1.0,95,0.00,,,0.00,0,Wunderground v.1.15,2013-02-04 05:09:00,
2013-02-03 21:13:00,46.1,45.6,30.18,South,181,1.0,1.0,98,0.00,,,0.00,0,Wunderground v.1.15,2013-02-04 05:13:00,
2013-02-03 21:24:00,45.6,43.4,30.18,South,174,2.0,2.0,92,0.00,,,0.00,0,Wunderground v.1.15,2013-02-04 05:24:00,
2013-02-03 21:28:00,45.4,42.9,30.18,South,170,2.0,2.0,91,0.00,,,0.00,0,Wunderground v.1.15,2013-02-04 05:28:00,
2013-02-03 21:38:00,45.3,43.1,30.18,South,170,2.0,2.0,92,0.00,,,0.00,0,Wunderground v.1.15,2013-02-04 05:38:00,
2013-02-03 21:43:00,45.2,43.3,30.18,South,170,0.0,2.0,93,0.00,,,0.00,0,Wunderground v.1.15,2013-02-04 05:43:00,
2013-02-03 21:48:00,45.1,43.8,30.18,South,170,0.0,0.0,95,0.00,,,0.00,0,Wunderground v.1.15,2013-02-04 05:48:00,
2013-02-03 21:58:00,44.6,43.0,30.18,South,171,1.0,1.0,94,0.00,,,0.00,0,Wunderground v.1.15,2013-02-04 05:58:00,
2013-02-03 22:08:00,44.3,43.0,30.18,South,170,1.0,1.0,95,0.00,,,0.00,0,Wunderground v.1.15,2013-02-04 06:08:00,
2013-02-03 22:18:00,44.3,43.2,30.18,South,180,1.0,1.0,96,0.00,,,0.00,0,Wunderground v.1.15,2013-02-04 06:18:00,
2013-02-03 22:28:00,44.3,43.0,30.18,South,176,2.0,2.0,95,0.00,,,0.00,0,Wunderground v.1.15,2013-02-04 06:28:00,
2013-02-03 22:38:00,44.2,42.9,30.18,South,176,0.0,0.0,95,0.00,,,0.00,0,Wunderground v.1.15,2013-02-04 06:38:00,
2013-02-03 22:48:00,43.9,42.6,30.18,South,176,0.0,0.0,95,0.00,,,0.00,0,Wunderground v.1.15,2013-02-04 06:48:00,
2013-02-03 22:58:00,43.7,42.1,30.18,South,175,0.0,0.0,94,0.00,,,0.00,0,Wunderground v.1.15,2013-02-04 06:58:00,
2013-02-03 23:03:00,43.7,42.4,30.18,South,175,2.0,2.0,95,0.00,,,0.00,0,Wunderground v.1.15,2013-02-04 07:03:00,
2013-02-03 23:08:00,43.4,41.8,30.18,South,175,0.0,0.0,94,0.00,,,0.00,0,Wunderground v.1.15,2013-02-04 07:08:00,
2013-02-03 23:18:00,43.3,41.4,30.18,South,175,1.0,1.0,93,0.00,,,0.00,0,Wunderground v.1.15,2013-02-04 07:18:00,
2013-02-03 23:28:00,43.1,40.9,30.18,South,175,0.0,0.0,92,0.00,,,0.00,0,Wunderground v.1.15,2013-02-04 07:28:00,
2013-02-03 23:33:00,43.0,41.1,30.18,South,175,0.0,0.0,93,0.00,,,0.00,0,Wunderground v.1.15,2013-02-04 07:33:00,
2013-02-03 23:43:00,42.6,40.4,30.17,South,175,0.0,0.0,92,0.00,,,0.00,0,Wunderground v.1.15,2013-02-04 07:43:00,
2013-02-03 23:48:00,42.4,40.2,30.18,South,175,0.0,0.0,92,0.00,,,0.00,0,Wunderground v.1.15,2013-02-04 07:48:00,
2013-02-03 23:58:00,42.0,40.7,30.18,South,175,0.0,0.0,95,0.00,,,0.00,0,Wunderground v.1.15,2013-02-04 07:58:00,